Location: Boiro
(42.6475°N, 8.8834°W)
Time: 00:52:23
(UTC+01:00)

Explorer 7 - Pass Details

Date: 02 December 2021
Orbit: 483 x 674 km, 50.3° (Epoch: 23 January)

Event Time Altitude Azimuth Distance (km) Brightness Sun altitude
Rises 12:45:58 0° 301° (WNW) 2,628 9.9 24.7°
Reaches altitude 10° 12:48:15 10° 306° (NW) 1,715 9.0 24.8°
Maximum altitude 12:52:02 52° 24° (NNE) 619 7.1 24.9°
Drops below altitude 10° 12:55:42 10° 102° (ESE) 1,663 9.6 25.0°
Sets 12:57:53 0° 107° (ESE) 2,537 10.5 25.0°
